User: anonymous   Login
Location: Unspecified
(0.0000°N, 0.0000°E)
Time: 11:25:06
(UTC+00:00)
Language:

NO-84 - Orbit

View from above orbital plane
View from above orbital plane
View from above satellite
View from above satellite

Ground track
Ground track

The orbit data is extracted from the following two-line orbital elements,

1 40654U 15025D   19339.36355855  .00006520  00000 0  87338-4 0  8003
2 40654  54.9862 117.2716 0130585  44.1367 317.0006 15.50100549138736
Epoch (UTC): 05 December 2019 08:43:31
Eccentricity: 0.0130585
inclination: 54.9862°
perigee height: 328 km
apogee height: 505 km
right ascension of ascending node: 117.2716°
argument of perigee: 44.1367°
revolutions per day: 15.50100549
mean anomaly at epoch: 317.0006°
orbit number at epoch: 13873

The dashed part of the orbit path shows where the satellite is in the earth's shadow,  

DLR